NT9M13 Weather Reports


time (UTC)temp
C
wind
direction
speed
KPH
gust
KPH
rain 1hr
cm
rain 24hr
cm
rain mn
cm
humidity
%
barometer
mb
20260906103003 18 27 0.0 0.0 0.00 0.00 0.00 93 1018.3
20260906100002 18 27 0.0 0.0 0.00 0.00 0.00 93 1018.1
20260906093003 18 27 0.0 0.0 0.00 0.00 0.00 94 1018.0
20260906090002 18 27 0.0 0.0 0.00 0.00 0.00 93 1018.0
20260906080002 19 27 0.0 0.0 0.00 0.00 0.00 92 1017.9
20260906073002 20 27 0.0 0.0 0.00 0.00 0.00 92 1017.9
20260906070003 20 27 0.0 0.0 0.00 0.00 0.00 92 1018.0
20260906063003 20 27 0.0 8.0 0.00 0.00 0.00 92 1017.9
20260906060002 21 319 0.0 0.0 0.00 0.00 0.00 94 1017.7
20260906053003 21 319 0.0 0.0 0.00 0.00 0.00 94 1017.2
20260906050003 21 319 0.0 0.0 0.00 0.00 0.00 94 1017.3
20260906043003 21 319 0.0 0.0 0.00 0.00 0.00 94 1017.2
20260906040003 21 319 0.0 0.0 0.00 0.00 0.00 94 1017.0
20260906033003 21 319 0.0 0.0 0.00 0.00 0.00 93 1016.7
20260906030002 22 319 0.0 0.0 0.00 0.00 0.00 93 1016.7
20260906023003 22 319 0.0 0.0 0.00 0.00 0.00 93 1016.5
20260906020003 22 319 0.0 0.0 0.00 0.00 0.00 93 1016.4
20260906010003 22 319 0.0 0.0 0.00 0.00 0.00 92 1015.6
20260906003003 22 319 0.0 8.0 0.00 0.00 0.00 92 1015.4
20260906000003 22 23 1.6 11.3 0.00 0.00 0.00 91 1015.3
20260905230004 23 326 1.6 9.7 0.00 0.28 0.00 92 1015.2
20260905223003 24 322 0.0 9.7 0.00 0.53 0.00 92 1014.7
20260905220004 25 346 1.6 9.7 0.00 0.53 0.00 91 1014.3
20260905213004 25 354 0.0 8.0 0.00 0.53 0.00 93 1014.2
20260905210004 25 309 1.6 9.7 0.00 0.53 0.00 94 1013.9
20260905203003 25 42 0.0 0.0 0.00 0.53 0.00 95 1014.3
20260905200004 25 42 0.0 4.8 0.00 0.53 0.00 95 1014.5
20260905190003 26 172 0.0 3.2 0.00 0.53 0.00 96 1014.5
20260905183004 25 0 0.0 0.0 0.00 0.53 0.00 96 1014.9
20260905180004 25 0 0.0 0.0 0.00 0.53 0.00 96 1014.7
20260905173004 25 0 0.0 0.0 0.00 0.53 0.00 96 1014.9
20260905170004 25 0 0.0 0.0 0.00 0.53 0.00 97 1015.1
20260905160003 24 0 0.0 0.0 0.00 0.53 0.00 97 1015.1
20260905153004 24 0 0.0 0.0 0.00 0.53 0.00 97 1014.8
20260905150004 23 0 0.0 0.0 0.00 0.53 0.00 98 1014.8
20260905133004 22 0 0.0 0.0 0.00 0.53 0.00 98 1014.6
20260905130004 22 0 0.0 0.0 0.00 0.53 0.00 98 1014.4
20260905123004 22 0 0.0 0.0 0.00 0.53 0.00 98 1014.3
20260905120004 21 0 0.0 0.0 0.00 0.53 0.00 98 1013.8
20260905113005 21 0 0.0 0.0 0.00 0.53 0.00 97 1013.6
20260905110005 21 0 0.0 0.0 0.00 0.53 0.00 97 1013.8